Showing default

FLOCK 4G 29, 62642

Orbit data source: Space-Track

FLOCK 4G 29, 62642 is a payload satellite owned by Planet (US) in SSO that was launched on Tue, 14 Jan 2025 UTC via an FALCON 9 launch vehicle from the Air Force Western Test Range (AFWTR). Payload-class satellites include a variety of spacecraft equipped with specific instruments for various scientific and technological missions. These include communications satellites like Starlink; space stations such as the ISS; scientific satellites like the Hubble; Earth observation satellites from companies like Planet Labs, Umbra, and HawkEye 360; GPS; miniature CubeSats for education and research; and military/defense satellites.

Loading next visibility...
Identifier
62642, 2025-009AK
Orbit
SSO
Country
Flag of USUS
Related business
Manufacturer
Planet
Mission
Operational Commercial Imaging
Bus & Motor
CUBESAT 3U, Unknown motor
Mass
5.7 kg wet, 5.7 kg dry
Launch date (UTC)
2025-01-14 (8 months ago)
Launch vehicle
FALCON 9
Launch site
Air Force Western Test Range (AFWTR)
Object type
Payload
Rocket body
Debris
Shape & HBR
Box + 2 Pan, 0.1 m
Radar Cross Section
0.035 m², Medium (>0.1 m² and < 1m²)

Expand to show TLE details & history
Last TLE update: 15 hours ago

TLE from 15 hours ago
0 FLOCK 4G 29
1 62642U 25009AK  25261.16591881  .00009919  00000-0  43433-3 0  9999
2 62642  97.4268 340.3353 0004105 153.9878 206.1565 15.22222974 37416
Epoch: 2025-09-18T03:58Z
TLE epoch observation values (Epoch: 2025-09-18T03:58:55.385Z)
Latitude
-0.00003°
Longitude
-76.72689°
Altitude
504.765 km
Speed
7.61 km/s
True Right ascension
22h 41m 20s
True Declination
0° 00' 00"
Sunlit
Object was in full shadow at epoch
Visualization orbit readout
Latitude
Unknown
Longitude
Unknown
Altitude
Unknown
Speed
Unknown
Apparent Right ascension
Unknown
Apparent Declination
Unknown
Sunlit
N/A
Visualization observer readout
Local Sidereal Time
11:20:38
Azimuth
Unknown
Elevation
Unknown
Doppler factor
Unknown
Orbital elements
Apogee altitude
498.923 km
Perigee altitude
493.279 km
Semi-major axis
6,874.238 km
Eccentricity
0.00041
Inclination
97.4268°
RAAN
340.3353°
Arg. of periapsis
153.9878°
True anomaly
206.13577°
Mean anomaly
206.1565°
Eccentric anomaly
206.14614°
Mean motion
3.80808 °/min
Orbital period
94.54 mins
BSTAR
0.00043433
Loading maneuver chart data...
Computing Atmospheric mass density...
Loading historical data...
Loading historical data...
Loading historical data...
Loading historical data...
Loading historical data...
Loading historical data...
Loading historical data...

Documentation

Showing up to 5 results
|